Notices

What's New in latest Release from April 7th, 2021:

- Updated Glossary, including Speed of Maximum Gust, and Total Hourly Precipitation

- Updated national and regional climate services offices contacts and prices information

- Addition of station inventory lists for 1981-2010, 1971-2000, and 1961-1990 Normals.

If you haven't already, please take our survey and provide feedback about our website: https://eccc.sondage-survey.ca/f/LanguageSelection.aspx?s=442ca660-fcf1-47c0-95a9-59707d6fd709

Hourly Data Report for April 06, 2018

MIRAMICHI RCS
NEW BRUNSWICK
Current Station Operator: ECCC - MSC

47°00'34.000" N
65°27'54.000" W
33.00 m
8100989
71744
ACQ

Download Data

Hourly Data (April 2018)
Hourly Data Report for April 6, 2018
TIME
LST
Temp Definition
°C
Dew Point Definition
°C
Rel Hum Definition
%
Precip. Amount Definition
mm

Wind Dir Definition
10's deg

Wind Spd Definition
km/h
Visibility Definition
km
Stn Press Definition
kPa
Hmdx Definition


Wind Chill Definition


Weather Definition


00:00 -8.5 -14.6 61 0.0 27 21   100.42   -16 LegendNANA
01:00 -9.1 -14.5 65 0.0 26 17   100.50   -16 LegendNANA
02:00 -9.5 -14.9 65 0.0 26 17   100.55   -17 LegendNANA
03:00 -10.0 -15.4 65 0.0 25 18   100.62   -17 LegendNANA
04:00 -10.4 -15.6 66 0.0 25 15   100.70   -17 LegendNANA
05:00 -10.8 -15.4 69 0.0 25 17   100.75   -18 LegendNANA
06:00 -11.9 -15.9 72 0.0 24 13   100.83   -19 LegendNANA
07:00 -10.9 -15.4 70 0.0 24 17   100.91   -18 LegendNANA
08:00 -9.2 -14.4 66 0.0 25 19   100.97   -17 LegendNANA
09:00 -7.8 -14.6 58 0.0 25 28   100.99   -16 LegendNANA
10:00 -6.0 -14.0 53 0.0 26 24   101.00   -13 LegendNANA
11:00 -4.6 -14.1 48 0.0 25 25   100.96   -12 LegendNANA
12:00 -3.3 -11.9 51 0.0 25 23   100.88   -10 LegendNANA
13:00 -2.4 -10.6 54 0.0 23 29   100.84   -9 LegendNANA
14:00 -1.6 -9.5 55 0.0 23 33   100.81   -9 LegendNANA
15:00 -0.4 -9.7 49 0.0 24 34   100.74   -7 LegendNANA
16:00 0.6 -10.0 45 0.0 23 25   100.68     LegendNANA
17:00 1.1 -10.0 43 0.0 22 25   100.62     LegendNANA
18:00 0.6 -9.8 45 0.0 23 21   100.56     LegendNANA
19:00 -1.7 -8.5 60 0.0 19 10   100.50   -5 LegendNANA
20:00 -2.1 -8.7 61 0.0 19 14   100.52   -7 LegendNANA
21:00 -1.8 -7.3 66 0.0 19 17   100.52   -7 LegendNANA
22:00 -1.8 -6.3 71 0.0 19 12   100.49   -6 LegendNANA
23:00 -1.5 -5.3 75 0.0 20 15   100.43   -6 LegendNANA

Notes on Data Quality.

Legend

  • E = Estimated
  • M = Missing
  • NA = Not Available*
  • [empty] = Indicates an unobserved value
Date modified: